TimePST,TemperatureF,Dew PointF,Humidity,Sea Level PressureIn,VisibilityMPH,Wind Direction,Wind SpeedMPH,Gust SpeedMPH,PrecipitationIn,Events,Conditions,WindDirDegrees,DateUTC
12:56 AM,55.0,52.0,89,30.10,6.0,SSE,5.8,-,0.06,Rain,Rain,150,2012-12-05 08:56:00
1:56 AM,54.0,53.1,97,30.12,5.0,Calm,Calm,-,0.18,Rain,Rain,0,2012-12-05 09:56:00
2:56 AM,54.0,53.1,97,30.12,9.0,Calm,Calm,-,0.06,Rain,Light Rain,0,2012-12-05 10:56:00
3:11 AM,53.6,51.8,94,30.13,10.0,Calm,Calm,-,0.00,,Overcast,0,2012-12-05 11:11:00
3:19 AM,53.6,51.8,94,30.13,10.0,NNW,3.5,-,0.00,,Overcast,340,2012-12-05 11:19:00
3:56 AM,53.1,52.0,96,30.12,5.0,NW,3.5,-,0.00,Rain,Light Rain,320,2012-12-05 11:56:00
4:56 AM,53.1,52.0,96,30.12,2.5,Calm,Calm,-,0.02,Rain,Light Rain,0,2012-12-05 12:56:00
6:56 AM,53.1,53.1,100,30.13,5.0,Calm,Calm,-,0.00,,Overcast,0,2012-12-05 14:56:00
7:06 AM,53.6,53.6,100,30.14,6.0,Calm,Calm,-,N/A,,Overcast,0,2012-12-05 15:06:00
7:56 AM,54.0,53.1,97,30.14,1.8,Calm,Calm,-,0.01,Rain,Light Rain,0,2012-12-05 15:56:00
8:22 AM,53.6,53.6,100,30.16,2.0,Calm,Calm,-,0.01,Rain,Light Rain,0,2012-12-05 16:22:00
8:28 AM,53.6,53.6,100,30.16,1.8,Calm,Calm,-,0.02,Rain,Light Rain,0,2012-12-05 16:28:00
8:40 AM,53.6,53.6,100,30.17,2.5,Calm,Calm,-,0.02,,Overcast,0,2012-12-05 16:40:00
8:56 AM,54.0,53.1,97,30.16,2.5,Calm,Calm,-,0.02,,Overcast,0,2012-12-05 16:56:00
9:33 AM,53.6,53.6,100,30.18,3.0,Calm,Calm,-,N/A,,Overcast,0,2012-12-05 17:33:00
9:45 AM,55.4,53.6,94,30.18,2.5,NNW,3.5,-,N/A,,Overcast,340,2012-12-05 17:45:00
9:54 AM,55.4,53.6,94,30.18,3.0,Calm,Calm,-,N/A,,Overcast,0,2012-12-05 17:54:00
9:56 AM,55.0,54.0,96,30.17,3.0,Calm,Calm,-,N/A,,Overcast,0,2012-12-05 17:56:00
10:06 AM,55.4,53.6,94,30.18,2.5,North,3.5,-,N/A,,Overcast,360,2012-12-05 18:06:00
10:19 AM,55.4,53.6,94,30.17,3.0,Calm,Calm,-,N/A,,Overcast,0,2012-12-05 18:19:00
10:35 AM,55.4,53.6,94,30.17,2.5,North,3.5,-,N/A,,Overcast,360,2012-12-05 18:35:00
10:44 AM,55.4,53.6,94,30.17,3.0,NNW,3.5,-,N/A,,Overcast,340,2012-12-05 18:44:00
10:52 AM,55.4,53.6,94,30.17,4.0,North,3.5,-,N/A,,Overcast,10,2012-12-05 18:52:00
10:56 AM,55.9,54.0,93,30.16,5.0,North,3.5,-,N/A,,Overcast,360,2012-12-05 18:56:00
11:28 AM,57.2,53.6,88,30.16,6.0,Calm,Calm,-,N/A,,Overcast,0,2012-12-05 19:28:00
11:54 AM,57.2,53.6,88,30.15,10.0,Calm,Calm,-,N/A,,Overcast,0,2012-12-05 19:54:00
11:56 AM,57.9,54.0,87,30.14,10.0,Calm,Calm,-,N/A,,Overcast,0,2012-12-05 19:56:00
12:56 PM,59.0,55.0,87,30.12,10.0,Calm,Calm,-,0.01,,Overcast,0,2012-12-05 20:56:00
1:56 PM,60.1,55.0,83,30.10,10.0,Calm,Calm,-,N/A,,Overcast,0,2012-12-05 21:56:00
2:56 PM,61.0,55.0,81,30.09,10.0,Calm,Calm,-,N/A,,Overcast,0,2012-12-05 22:56:00
3:47 PM,60.8,55.4,82,30.11,10.0,Calm,Calm,-,N/A,,Scattered Clouds,0,2012-12-05 23:47:00
3:56 PM,59.0,55.0,87,30.10,10.0,Calm,Calm,-,N/A,,Clear,0,2012-12-05 23:56:00
4:56 PM,57.0,55.0,93,30.10,10.0,Calm,Calm,-,N/A,,Partly Cloudy,0,2012-12-06 00:56:00
5:56 PM,55.0,53.1,93,30.12,10.0,Calm,Calm,-,N/A,,Clear,0,2012-12-06 01:56:00
6:56 PM,54.0,52.0,93,30.12,10.0,Calm,Calm,-,N/A,,Mostly Cloudy,0,2012-12-06 02:56:00
7:47 PM,53.6,53.6,100,30.14,10.0,Calm,Calm,-,N/A,,Mostly Cloudy,0,2012-12-06 03:47:00
7:56 PM,54.0,53.1,97,30.13,9.0,Calm,Calm,-,N/A,,Overcast,0,2012-12-06 03:56:00
8:34 PM,53.6,53.6,100,30.14,8.0,Calm,Calm,-,N/A,,Overcast,0,2012-12-06 04:34:00
8:56 PM,53.1,52.0,96,30.13,5.0,Calm,Calm,-,N/A,,Overcast,0,2012-12-06 04:56:00
9:29 PM,53.6,51.8,94,30.13,7.0,Calm,Calm,-,N/A,,Mostly Cloudy,0,2012-12-06 05:29:00
9:37 PM,53.6,51.8,94,30.14,9.0,Calm,Calm,-,N/A,,Mostly Cloudy,0,2012-12-06 05:37:00
9:54 PM,53.6,51.8,94,30.14,10.0,NW,4.6,-,N/A,,Mostly Cloudy,310,2012-12-06 05:54:00
9:56 PM,53.1,52.0,96,30.13,10.0,WNW,4.6,-,N/A,,Mostly Cloudy,290,2012-12-06 05:56:00
10:56 PM,53.1,52.0,96,30.13,8.0,Calm,Calm,-,N/A,,Overcast,0,2012-12-06 06:56:00
11:56 PM,52.0,50.0,93,30.13,8.0,Calm,Calm,-,N/A,,Overcast,0,2012-12-06 07:56:00